Location: Archemont
(49.1579°N, 1.7598°E)
Time: 16:48:32
(UTC+00:00)

Tiros 1 - All Passes

Search period start: 23 April 2024 00:00
Search period end: 03 May 2024 00:00
Orbit: 625 x 657 km, 48.4° (Epoch: 22 April)

Date Brightness Start Highest point End Pass type
(mag) Time Alt. Az. Time Alt. Az. Time Alt. Az.
23 Apr - 01:19:19 10° W 01:23:58 82° S 01:28:35 10° E visible
23 Apr - 03:01:22 10° W 03:05:58 65° SSW 03:10:30 10° ESE visible
23 Apr - 04:43:45 10° W 04:47:31 25° SW 04:51:17 10° SSE daylight
23 Apr - 22:20:34 10° SSW 22:24:28 27° SE 22:28:21 10° E night (unlit)
24 Apr - 00:01:26 10° WSW 00:06:04 66° SSE 00:10:39 10° E visible
24 Apr - 01:43:25 10° W 01:48:05 81° S 01:52:41 10° E visible
24 Apr - 03:25:32 10° W 03:29:56 45° SSW 03:34:19 10° SE visible
24 Apr - 05:08:47 10° WSW 05:11:11 14° SW 05:13:34 10° S daylight
24 Apr - 21:04:49 10° SSE 21:07:04 13° SE 21:09:17 10° ESE night (unlit)
24 Apr - 22:43:52 10° SW 22:48:17 43° SSE 22:52:41 10° E night (unlit)
25 Apr - 00:25:29 10° W 00:30:08 80° S 00:34:46 10° E visible
25 Apr - 02:07:32 10° W 02:12:09 68° SSW 02:16:43 10° ESE visible
25 Apr - 03:49:50 10° W 03:53:46 28° SSW 03:57:41 10° SSE visible
25 Apr - 21:26:55 10° SSW 21:30:42 24° SE 21:34:27 10° E night (unlit)
25 Apr - 23:07:38 10° WSW 23:12:15 63° SSE 23:16:50 10° E visible
26 Apr - 00:49:34 10° W 00:54:14 82° S 00:58:52 10° E visible
26 Apr - 02:31:41 10° W 02:36:08 49° SSW 02:40:34 10° SE visible
26 Apr - 04:14:39 10° W 04:17:27 16° SW 04:20:13 10° S daylight
26 Apr - 20:11:39 10° SSE 20:13:19 12° SE 20:14:59 10° ESE visible
26 Apr - 21:50:07 10° SW 21:54:29 40° SSE 21:58:50 10° E visible
26 Apr - 23:31:38 10° WSW 23:36:18 79° S 23:40:55 10° E visible
27 Apr - 01:13:41 10° W 01:18:19 72° SSW 01:22:54 10° ESE visible
27 Apr - 02:55:55 10° W 02:59:59 31° SSW 03:04:01 10° SSE visible
27 Apr - 20:33:18 10° SSW 20:36:55 22° SE 20:40:30 10° E visible
27 Apr - 22:13:48 10° WSW 22:18:24 59° SSE 22:22:59 10° E visible
27 Apr - 23:55:42 10° W 00:00:23 83° S 00:05:02 10° E visible
28 Apr - 01:37:47 10° W 01:42:18 53° SSW 01:46:47 10° SE visible
28 Apr - 03:20:34 10° W 03:23:41 18° SW 03:26:46 10° S visible
28 Apr - 19:19:01 10° SE 19:19:34 10° SE 19:20:05 10° SE daylight
28 Apr - 20:56:21 10° SW 21:00:40 37° SSE 21:04:57 10° E visible
28 Apr - 22:37:44 10° WSW 22:42:25 76° S 22:47:04 10° E visible
29 Apr - 00:19:48 10° W 00:24:28 75° S 00:29:04 10° ESE visible
29 Apr - 02:01:59 10° W 02:06:11 34° SSW 02:10:19 10° SE visible
29 Apr - 19:39:42 10° S 19:43:06 20° SE 19:46:30 10° E visible
29 Apr - 21:19:57 10° WSW 21:24:32 56° SSE 21:29:07 10° E visible
29 Apr - 23:01:48 10° W 23:06:30 83° S 23:11:08 10° E visible
30 Apr - 00:43:53 10° W 00:48:27 57° SSW 00:52:58 10° ESE visible
30 Apr - 02:26:31 10° W 02:29:53 20° SW 02:33:14 10° S visible
30 Apr - 20:02:35 10° SSW 20:06:49 33° SSE 20:11:02 10° E visible
30 Apr - 21:43:51 10° WSW 21:48:32 74° S 21:53:11 10° E visible
30 Apr - 23:25:53 10° W 23:30:34 77° S 23:35:11 10° ESE visible
01 May - 01:08:03 10° W 01:12:20 37° SSW 01:16:35 10° SE visible
01 May - 02:52:44 10° SW 02:53:25 10° SW 02:54:06 10° SW night (unlit)
01 May - 18:46:07 10° S 18:49:17 18° SE 18:52:26 10° E daylight
01 May - 20:26:05 10° SW 20:30:40 52° SSE 20:35:13 10° E visible
01 May - 22:07:53 10° W 22:12:35 83° S 22:17:15 10° E visible
01 May - 23:49:57 10° W 23:54:34 60° SSW 23:59:08 10° ESE visible
02 May - 01:32:27 10° W 01:36:04 22° SW 01:39:38 10° SSE night (unlit)
02 May - 19:08:48 10° SSW 19:12:57 31° SSE 19:17:04 10° E daylight
02 May - 20:49:56 10° WSW 20:54:38 71° SSE 20:59:17 10° E visible
02 May - 22:31:56 10° W 22:36:39 79° S 22:41:18 10° ESE visible
